Sister Bay, Wisconsin, United States (54234)
Lat: 45.19N, Lon: 87.12W
Wx Zone: WIZ022
Local Info
Past Weather Observations for Monday, May 18, 2015

NOTE: This archive is for the closest National Weather Service station to Sister Bay. Information may differ from the station used for current weather conditions.

Click here for Long-term Archive

Time Weather Temperature Dewpoint Humidity Pressure Winds Precip Visibility
23:50
Overcast
37°F / 3°C 34°F / 1°C 87% 30.09 in
(1019 mb)
NNW 10.4 mph
(NNW 17 kph)
- 10SM
23:30
Overcast
39°F / 4°C 34°F / 1°C 81% 30.09 in
(1019 mb)
NNW 10.4 mph
(NNW 17 kph)
- 10SM
23:10
Overcast
39°F / 4°C 36°F / 2°C 87% 30.09 in
(1019 mb)
NNW 10.4 mph
(NNW 17 kph)
- 10SM
22:50
Overcast
39°F / 4°C 36°F / 2°C 87% 30.09 in
(1019 mb)
NNW 10.4 mph
(NNW 17 kph)
- 10SM
22:30
Overcast
39°F / 4°C 36°F / 2°C 87% 30.09 in
(1019 mb)
NW 11.5 mph
(NW 19 kph)
- 10SM
22:10
Overcast
39°F / 4°C 36°F / 2°C 87% 30.06 in
(1018 mb)
NNW 12.7 mph
(NNW 20 kph)
- 10SM
21:50
Overcast
39°F / 4°C 37°F / 3°C 93% 30.06 in
(1018 mb)
NNW 16.1 mph
(NNW 26 kph)
- 7SM
21:30
Overcast
43°F / 6°C 41°F / 5°C 93% 30.06 in
(1018 mb)
NW 9.2 mph
(NW 15 kph)
- 7SM
21:10
Overcast
43°F / 6°C 41°F / 5°C 93% 30.06 in
(1018 mb)
WNW 11.5 mph
(WNW 19 kph)
- 7SM
20:50
Overcast
Fog And Mist
43°F / 6°C 41°F / 5°C 93% 30.06 in
(1018 mb)
W 12.7 mph
(W 20 kph)
- 5SM
20:30
Overcast
43°F / 6°C 39°F / 4°C 87% 30.06 in
(1018 mb)
WNW 12.7 mph
(WNW 20 kph)
- 10SM
20:10
Overcast
43°F / 6°C 39°F / 4°C 87% 30.06 in
(1018 mb)
W 9.2 mph
(W 15 kph)
- 10SM
19:50
Overcast
43°F / 6°C 39°F / 4°C 87% 30.04 in
(1017 mb)
W 11.5 mph
(W 19 kph)
- 10SM
19:30
Overcast
43°F / 6°C 39°F / 4°C 87% 30.04 in
(1017 mb)
W 10.4 mph
(W 17 kph)
- 10SM
19:10
Overcast
43°F / 6°C 39°F / 4°C 87% 30.04 in
(1017 mb)
SSW 10.4 mph
(SSW 17 kph)
- 10SM
18:50
Overcast
45°F / 7°C 39°F / 4°C 81% 30.04 in
(1017 mb)
W 9.2 mph
(W 15 kph)
- 10SM
18:30
Overcast
45°F / 7°C 39°F / 4°C 81% 30.04 in
(1017 mb)
SSW 13.8 mph
(SSW 22 kph)
- 10SM
18:10
Overcast
45°F / 7°C 39°F / 4°C 81% 30.04 in
(1017 mb)
W 12.7 mph
(W 20 kph)
- 10SM
17:50
Overcast
43°F / 6°C 39°F / 4°C 87% 30.04 in
(1017 mb)
SSW 12.7 mph
(SSW 20 kph)
- 10SM
17:30
Overcast
45°F / 7°C 37°F / 3°C 76% 30.04 in
(1017 mb)
SSW 16.1 mph
(SSW 26 kph)
- 10SM
17:10
Overcast
45°F / 7°C 37°F / 3°C 76% 30.04 in
(1017 mb)
SSW 15 mph
(SSW 24 kph)
- 10SM
16:50
Overcast
45°F / 7°C 37°F / 3°C 76% 30.04 in
(1017 mb)
W 12.7 mph
(W 20 kph)
- 10SM
16:30
Overcast
45°F / 7°C 37°F / 3°C 76% 30.04 in
(1017 mb)
W 17.3 mph
(W 28 kph)
- 10SM
16:10
Overcast
45°F / 7°C 37°F / 3°C 76% 30.01 in
(1016 mb)
W 15 mph
(W 24 kph)
- 10SM
15:50
Overcast
46°F / 8°C 39°F / 4°C 76% 30.01 in
(1016 mb)
W 17.3 mph
(W 28 kph)
- 10SM
15:30
Overcast
46°F / 8°C 39°F / 4°C 76% 30.01 in
(1016 mb)
SSW 16.1 mph
(SSW 26 kph)
- 10SM
15:10
Overcast
46°F / 8°C 39°F / 4°C 76% 29.98 in
(1015 mb)
W 16.1 mph
(W 26 kph)
- 10SM
14:50
Overcast
46°F / 8°C 37°F / 3°C 71% 29.98 in
(1015 mb)
SSW 20.7 mph
(SSW 33 kph)
- 10SM
14:30
Overcast
46°F / 8°C 39°F / 4°C 76% 29.98 in
(1015 mb)
SSW 17.3 mph
(SSW 28 kph)
- 10SM
14:10
Overcast
46°F / 8°C 39°F / 4°C 76% 29.98 in
(1015 mb)
W 19.6 mph
(W 32 kph)
- 10SM
13:50
Overcast
46°F / 8°C 39°F / 4°C 76% 29.98 in
(1015 mb)
W 18.4 mph
(W 30 kph)
- 10SM
13:30
Overcast
46°F / 8°C 37°F / 3°C 71% 29.98 in
(1015 mb)
W 23 mph
(W 37 kph)
- 10SM
13:10
Overcast
45°F / 7°C 37°F / 3°C 76% 29.98 in
(1015 mb)
SSW 21.9 mph
(SSW 35 kph)
- 10SM
12:50
Overcast
45°F / 7°C 37°F / 3°C 76% 29.95 in
(1014 mb)
SSW 19.6 mph
(SSW 32 kph)
- 10SM
12:30
Overcast
46°F / 8°C 39°F / 4°C 76% 29.95 in
(1014 mb)
W 16.1 mph
(W 26 kph)
- 10SM
12:10
Overcast
46°F / 8°C 39°F / 4°C 76% 29.95 in
(1014 mb)
SSW 20.7 mph
(SSW 33 kph)
- 10SM
11:50
Overcast
46°F / 8°C 39°F / 4°C 76% 29.95 in
(1014 mb)
SSW 18.4 mph
(SSW 30 kph)
- 10SM
11:30
Overcast
48°F / 9°C 41°F / 5°C 76% 29.95 in
(1014 mb)
SSW 17.3 mph
(SSW 28 kph)
- 10SM
11:10
Overcast
50°F / 10°C 41°F / 5°C 71% 29.92 in
(1013 mb)
SSW 21.9 mph
(SSW 35 kph)
- 10SM
10:50
Mostly Cloudy
50°F / 10°C 41°F / 5°C 71% 29.92 in
(1013 mb)
SSW 18.4 mph
(SSW 30 kph)
- 10SM
10:30
Overcast
50°F / 10°C 41°F / 5°C 71% 29.92 in
(1013 mb)
SSW 20.7 mph
(SSW 33 kph)
- 10SM
10:10
Mostly Cloudy
50°F / 10°C 43°F / 6°C 76% 29.89 in
(1012 mb)
SSW 24.2 mph
(SSW 39 kph)
- 10SM
09:50
Mostly Cloudy
50°F / 10°C 43°F / 6°C 76% 29.89 in
(1012 mb)
SSW 20.7 mph
(SSW 33 kph)
- 10SM
09:30
Mostly Cloudy
48°F / 9°C 41°F / 5°C 76% 29.89 in
(1012 mb)
SSW 21.9 mph
(SSW 35 kph)
- 10SM
09:10
Mostly Cloudy
48°F / 9°C 41°F / 5°C 76% 29.89 in
(1012 mb)
SSW 17.3 mph
(SSW 28 kph)
- 10SM
08:50
Mostly Cloudy
48°F / 9°C 41°F / 5°C 76% 29.89 in
(1012 mb)
W 20.7 mph
(W 33 kph)
- 10SM
08:30
Mostly Cloudy
48°F / 9°C 41°F / 5°C 76% 29.89 in
(1012 mb)
SSW 21.9 mph
(SSW 35 kph)
- 10SM
08:10
Overcast
50°F / 10°C 43°F / 6°C 76% 29.89 in
(1012 mb)
SSW 21.9 mph
(SSW 35 kph)
- 10SM
07:50
Overcast
50°F / 10°C 43°F / 6°C 76% 29.89 in
(1012 mb)
SSW 25.3 mph
(SSW 41 kph)
- 10SM
07:30
Overcast
48°F / 9°C 43°F / 6°C 82% 29.86 in
(1011 mb)
SSW 19.6 mph
(SSW 32 kph)
- 10SM
07:10
Overcast
48°F / 9°C 43°F / 6°C 82% 29.86 in
(1011 mb)
SSW 18.4 mph
(SSW 30 kph)
- 10SM
06:50
Overcast
50°F / 10°C 45°F / 7°C 82% 29.86 in
(1011 mb)
SSW 17.3 mph
(SSW 28 kph)
- 10SM
06:30
Overcast
50°F / 10°C 45°F / 7°C 82% 29.83 in
(1010 mb)
SSW 18.4 mph
(SSW 30 kph)
- 10SM
06:10
Overcast
50°F / 10°C 46°F / 8°C 88% 29.83 in
(1010 mb)
SSW 17.3 mph
(SSW 28 kph)
- 10SM
05:50
Overcast
52°F / 11°C 46°F / 8°C 82% 29.83 in
(1010 mb)
SSW 18.4 mph
(SSW 30 kph)
- 10SM
05:30
Overcast
52°F / 11°C 46°F / 8°C 82% 29.83 in
(1010 mb)
SW 18.4 mph
(SW 30 kph)
- 10SM
05:10
Overcast
54°F / 12°C 48°F / 9°C 82% 29.83 in
(1010 mb)
SSW 18.4 mph
(SSW 30 kph)
- 10SM
04:50
Overcast
54°F / 12°C 48°F / 9°C 82% 29.8 in
(1009 mb)
SSW 20.7 mph
(SSW 33 kph)
- 10SM
04:30
Overcast
54°F / 12°C 50°F / 10°C 88% 29.8 in
(1009 mb)
SSW 11.5 mph
(SSW 19 kph)
- 10SM
04:10
Mostly Cloudy
54°F / 12°C 50°F / 10°C 88% 29.8 in
(1009 mb)
SSW 12.7 mph
(SSW 20 kph)
- 10SM
03:50
Clear
55°F / 13°C 50°F / 10°C 82% 29.8 in
(1009 mb)
SW 16.1 mph
(SW 26 kph)
- 10SM
03:30
Clear
55°F / 13°C 50°F / 10°C 82% 29.8 in
(1009 mb)
SW 15 mph
(SW 24 kph)
- 10SM
03:10
Clear
55°F / 13°C 50°F / 10°C 82% 29.8 in
(1009 mb)
SW 17.3 mph
(SW 28 kph)
- 10SM
02:50
Clear
55°F / 13°C 50°F / 10°C 82% 29.8 in
(1009 mb)
SW 12.7 mph
(SW 20 kph)
- 10SM
02:30
Clear
57°F / 14°C 50°F / 10°C 77% 29.8 in
(1009 mb)
SW 11.5 mph
(SW 19 kph)
- 10SM
02:10
Clear
57°F / 14°C 50°F / 10°C 77% 29.8 in
(1009 mb)
SW 10.4 mph
(SW 17 kph)
- 10SM
01:50
Clear
57°F / 14°C 52°F / 11°C 82% 29.8 in
(1009 mb)
SW 11.5 mph
(SW 19 kph)
- 10SM
01:30
Clear
57°F / 14°C 52°F / 11°C 82% 29.8 in
(1009 mb)
SW 12.7 mph
(SW 20 kph)
- 10SM
01:10
Partly Cloudy
59°F / 15°C 52°F / 11°C 77% 29.77 in
(1008 mb)
SW 13.8 mph
(SW 22 kph)
- 10SM
00:50
Partly Cloudy
61°F / 16°C 54°F / 12°C 77% 29.77 in
(1008 mb)
SW 12.7 mph
(SW 20 kph)
- 10SM
00:30
Clear
61°F / 16°C 54°F / 12°C 77% 29.77 in
(1008 mb)
SW 15 mph
(SW 24 kph)
- 10SM
00:10
Clear
61°F / 16°C 54°F / 12°C 77% 29.77 in
(1008 mb)
SW 16.1 mph
(SW 26 kph)
- 10SM
Time Weather Temperature Dewpoint Humidity Pressure Winds Precip Visibility


Weather for websites

WeatherForYou.com, LLC is not responsible for any damages or problems caused by this service. Current weather conditions are obtained from the closest station including government and personal stations which may have varying degrees of accuracy. Weather forecasts are derived from the NOAA NDFD. Like all things, this site belongs to Jesus Christ... He just trusts us to maintain it. If you have any questions or comments email webmaster@weatherforyou.com

Copyright © 2015, WeatherForYou.com LLC. All rights reserved.